Location: Brachstadt
(48.6975°N, 10.6755°E)
Time: 09:26:55
(UTC+00:00)

Envisat - Visible Passes

Search period start: 28 November 2022 00:00
Search period end: 08 December 2022 00:00
Orbit: 763 x 765 km, 98.2° (Epoch: 27 November)

Date Brightness Start Highest point End Pass type
(mag) Time Alt. Az. Time Alt. Az. Time Alt. Az.
28 Nov 5.6 02:29:25 10° NE 02:31:00 16° ENE 02:31:00 16° ENE visible
28 Nov 3.6 04:07:38 10° N 04:11:09 42° NNW 04:11:09 42° NNW visible
28 Nov 4.8 05:49:28 10° NW 05:50:37 11° NW 05:51:20 10° WNW visible
29 Nov 4.2 03:30:35 10° NNE 03:33:31 35° NNE 03:33:31 35° NNE visible
29 Nov 4.3 05:10:34 10° NNW 05:13:41 20° NW 05:13:41 20° NW visible
30 Nov 5.1 02:53:54 10° NNE 02:55:54 21° NE 02:55:54 21° NE visible
30 Nov 3.9 04:32:54 10° N 04:36:04 30° NNW 04:36:04 30° NNW visible
01 Dec 5.9 02:17:54 10° NE 02:18:16 11° NE 02:18:16 11° NE visible
01 Dec 4.1 03:55:38 10° N 03:58:26 33° N 03:58:26 33° N visible
01 Dec 4.7 05:36:34 10° NNW 05:38:37 13° NW 05:38:37 13° NW visible
02 Dec 4.8 03:18:41 10° NNE 03:20:50 25° NNE 03:20:50 25° NNE visible
02 Dec 4.3 04:58:20 10° N 05:01:00 21° NW 05:01:00 21° NW visible
02 Dec 6.2 16:20:18 10° WSW 16:21:51 11° W 16:23:23 10° WNW visible
03 Dec 5.6 02:42:09 10° NE 02:43:14 15° NE 02:43:14 15° NE visible
03 Dec 4.2 04:20:50 10° N 04:23:24 28° NNW 04:23:24 28° NNW visible
04 Dec 4.6 03:43:40 10° NNE 03:45:48 26° NNE 03:45:48 26° NNE visible
04 Dec 4.6 05:24:05 10° NNW 05:25:58 15° NW 05:25:58 15° NW visible
05 Dec 5.2 03:06:49 10° NNE 03:08:12 18° NNE 03:08:12 18° NNE visible
05 Dec 4.4 04:46:11 10° N 04:48:23 21° NNW 04:48:23 21° NNW visible
05 Dec 5.9 16:06:59 10° WSW 16:09:43 14° W 16:12:27 10° NW visible
06 Dec 5.9 02:30:29 10° NE 02:30:38 11° NE 02:30:38 11° NE visible
06 Dec 4.5 04:08:47 10° N 04:10:48 24° N 04:10:48 24° N visible
07 Dec 5.0 03:31:43 10° NNE 03:33:13 20° NNE 03:33:13 20° NNE visible
07 Dec 4.7 05:11:45 10° NNW 05:13:24 16° NNW 05:13:24 16° NNW visible
